057  
ASUS41 KBOX 282110  
RWRBOX  
 
REGIONAL WEATHER ROUNDUP  
NATIONAL WEATHER SERVICE TAUNTON MA  
500 PM EDT FRI APR 28 2017  
 
NOTE: "FAIR" INDICATES FEW OR NO CLOUDS BELOW 12,000 FEET WITH NO  
SIGNIFICANT WEATHER AND/OR S TO VISIBILITY
.  
 
MAZALL-282200-  
EASTERN MASSACHUSETTS  
 
CITY SKY/WX TMP DP RH WIND PRES REMARKS
 
BOSTON MOSUNNY 81 61 50 SW9 29.91F  
BEVERLY MOSUNNY 80 62 54 S9 29.89F  
LAWRENCE SUNNY 84 56 38 W12 29.91S  
BEDFORD MOSUNNY 82 51 34 W12G20 29.90S  
BLUE HILL N/A 82 57 42 W9G22 29.93S  
NORWOOD MOSUNNY 83 60 45 SW9 29.91F  
MARSHFIELD MOSUNNY 81 63 54 SW13 29.91F  
PLYMOUTH SUNNY 77 60 55 SW12 29.93S  
TAUNTON SUNNY 78 60 53 SW10 29.93S  
NEW BEDFORD SUNNY 76 61 59 SW10G20 29.94S  

 
 
MAZALL-282200-  
CAPE COD AND THE ISLANDS  
 
CITY SKY/WX TMP DP RH WIND PRES REMARKS
 
FALMOUTH SUNNY 70 61 73 MISG 29.97R  
HYANNIS SUNNY 69 60 73 SW12 29.94S  
CHATHAM SUNNY 58 53 84 SW9 29.97R  
PROVINCETOWN SUNNY 67 59 75 SW16 29.94R  
NANTUCKET SUNNY 54 49 83 SW13 30.00R  
MARTHAS VNYRD SUNNY 62 53 72 SW13G23 29.98R  

 
 
MAZALL-282200-  
CENTRAL AND WESTERN MASSACHUSETTS  
 
CITY SKY/WX TMP DP RH WIND PRES REMARKS
 
WORCESTER SUNNY 78 49 35 SW14 29.95F  
FITCHBURG MOSUNNY 83 49 30 W8G20 29.93S  
ORANGE SUNNY 82 37 20 W17G23 29.93F  
SPRINGFIELD NOT AVBL  
WESTFIELD MOSUNNY 83 52 34 NW8G18 29.93S  
NORTH ADAMS SUNNY 79 44 28 W16G23 29.95F  
PITTSFIELD MOSUNNY 76 49 38 W9 29.96F  

 
 
RIZALL-282200-  
RHODE ISLAND  
 
CITY SKY/WX TMP DP RH WIND PRES REMARKS
 
PROVIDENCE MOSUNNY 73 61 65 SE5 29.94F  
NEWPORT SUNNY 71 61 70 SW8 29.96S  
BLOCK ISLAND MOSUNNY 59 54 83 SW15 30.00R  
SMITHFIELD MOSUNNY 80 58 46 W8 29.94F  
WESTERLY SUNNY 71 60 68 W7 29.98S  

 
 
CTZALL-282200-  
CONNECTICUT  
 
CITY SKY/WX TMP DP RH WIND PRES REMARKS
 
BRADLEY INTL PTSUNNY 85 49 28 SW6 29.93F  
HARTFORD SUNNY 81 60 48 S12G18 29.93S  
BRIDGEPORT SUNNY 76 61 59 S7 29.97S  
DANBURY MOSUNNY 80 56 43 S8 29.97S  
GROTON SUNNY 63 58 83 S8 29.97S  
NEW HAVEN MOSUNNY 70 59 68 SE5 29.97S  
CHESTER FAIR 77 55 47 S12G18 29.99R  
MERIDEN SUNNY 81 59 47 S12 29.95F  
WILLIMANTIC MOSUNNY 84 55 36 SW9 29.94F  
OXFORD MOSUNNY 79 59 50 S8 29.98F  

 
 
MEZ002-015-021-024-NHZ003-005-008-011-012-014-VTZ005-008-282200-  
NORTHERN NEW ENGLAND  
 
CITY SKY/WX TMP DP RH WIND PRES REMARKS
 
PORTLAND ME MOSUNNY 64 56 75 S9 29.90R  
BANGOR ME PTSUNNY 69 59 70 S8 29.87F  
CONCORD NH MOSUNNY 82 40 22 W13G21 29.90S  
MANCHESTER NH MOSUNNY 83 41 22 SW9G23 29.89R  
NASHUA NH MOSUNNY 82 49 31 W12G21 29.91S  
PORTSMOUTH NH PTSUNNY 74 60 61 E8 29.88F  
JAFFREY NH SUNNY 79 37 22 W8G22 29.96F  
KEENE NH SUNNY 81 37 20 SW12G17 29.93F  
BURLINGTON VT PTSUNNY 81 38 21 W8 29.89S  
MT. WASHINGTON PTSUNNY 48 39 71 W33 N/A  

 
 
NYZ052-076-282200-  
EASTERN NEW YORK  
 
CITY SKY/WX TMP DP RH WIND PRES REMARKS
 
ALBANY MOSUNNY 79 51 37 N12 29.96S  
NEW YORK CITY MOSUNNY 81 56 42 S17 29.96F  

 
 
ANZALL-282200-  
MARINE OBSERVATIONS  
 
STATION/POSITION TIME TEMP WIND PRES VSBY WAVE
 
AIR SEA DIR/SP/G HT/PER  
(UTC) (F) (DEG/KT/KT) (MB) (MI) (FT/S)  
BOSTON BUOY 1950 54 49 120/ 8/ 8 1012.5 3/ 9  
BUZZARDS BAY 2000 52 230/ 14/ 15 1015.1F  
NANTUCKET SOUND 2050 47 1014.8R 1/ 9  
MASS BAY-STELLWA 2004 53 48 170/ 6/ 8 1012.4F 3/ 9  
ISLE OF SHOALS 2000 54 160/ 17/ 19 1012.5F  
S OF BLOCK IS 2055 49 N/A 5/ 8  

 
   
.....................KEY......................
 
 
SKY/WX - SKY CONDITION/PRESENT WEATHER  
TMP - TEMPERATURE IN FAHRENHEIT  
DWPT - DEWPOINT IN FAHRENHEIT  
RH - RELATIVE HUMIDITY IN PERCENT  
WIND - DIRECTION AND SPEED IN MPH  
PRES - MEAN SEA LEVEL PRESSURE IN INCHES OF HG  
WCI - WIND CHILL INDEX  
VSB - VISIBILITY IN MILES  
HX - HEAT INDEX  
TC - TEMPERATURE IN CELSIUS  
VRB - VARIABLE WIND DIRECTION  
N/A - NOT AVAILABLE  
 
 
CLICK HERE TO GO TO PREVIOUS BULLETINS.

The Nexlab MA Page
The Nexlab RI Page
The Nexlab NH Page
The Nexlab CT Page Main Text Page